Le Mars, IA

2:10 AM CST on November 22, 2019 (GMT -0600)
Le Mars Municipal

Weather History for KLRJ - July, 2019

Change the Weather History Date:

Friday, July 19, 2019

  Actual Average Record
Temperature  
Mean Temperature 85 °F -  
Max Temperature 95 °F 88 °F 101 °F (1974)
Min Temperature 75 °F 65 °F 55 °F (1992)
Cooling Degree Days 20    
Growing Degree Days 35 (Base 50)    
Moisture  
Dew Point 78 °F    
Average Humidity 81    
Maximum Humidity 100    
Minimum Humidity 56    
Precipitation  
Precipitation 0.00 in - - ()
Sea Level Pressure  
Sea Level Pressure 29.69 in    
Wind  
Wind Speed 8 mph (South)    
Max Wind Speed 23 mph    
Max Gust Speed 30 mph    
Visibility 9 miles    
Events      
Averages and records for this station are not official NWS values.
T = Trace of Precipitation, MM = Missing Value Source: NWS Daily Summary

Daily Weather History Graph

Daily Weather History Graph

Search for Another Location

Airport or City:

Astronomy

Jul. 19, 2019 Rise Set
Actual Time 6:03 AM CDT 8:58 PM CDT
Civil Twilight 5:29 AM CDT 9:31 PM CDT
Nautical Twilight 4:47 AM CDT 10:14 PM CDT
Astronomical Twilight 3:57 AM CDT 11:03 PM CDT
Moon 10:54 PM CDT (7/19) 8:33 AM CDT (7/19)
Length of Visible Light 16h 02m
Length of Day
14h 55m
Waning Gibbous, 93% of the Moon is Illuminated
Jul 19
Waning Gibbous
Jul 24
Last Quarter
Jul 31
New
Aug 7
First Quarter
Aug 15
Full

Hourly Weather History & Observations

Time (CDT) Temp. Heat Index Dew Point Humidity Pressure Visibility Wind Dir Wind Speed Gust Speed Precip Events Conditions
12:15 AM 78.8 °F - 78.8 °F 100% 29.68 in 10.0 mi South 3.5 mph - N/A   Clear
12:35 AM 78.8 °F - 78.8 °F 100% 29.68 in 10.0 mi South 3.5 mph - N/A   Clear
12:55 AM 78.8 °F - 77.0 °F 94% 29.68 in 8.0 mi Calm Calm - N/A   Clear
1:15 AM 78.8 °F - 77.0 °F 94% 29.68 in 6.0 mi Calm Calm - N/A   Clear
1:35 AM 77.0 °F - 77.0 °F 100% 29.68 in 7.0 mi South 5.8 mph - N/A   Clear
1:55 AM 77.0 °F - 77.0 °F 100% 29.68 in 8.0 mi South 5.8 mph - N/A   Clear
2:15 AM 77.0 °F - 77.0 °F 100% 29.69 in 9.0 mi South 6.9 mph - N/A   Clear
2:35 AM 77.0 °F - 77.0 °F 100% 29.68 in 8.0 mi South 6.9 mph - N/A   Clear
2:55 AM 77.0 °F - 77.0 °F 100% 29.69 in 7.0 mi South 4.6 mph - N/A   Clear
3:15 AM 77.0 °F - 77.0 °F 100% 29.68 in 7.0 mi SSE 4.6 mph - N/A   Clear
3:35 AM 77.0 °F - 75.2 °F 94% 29.68 in 7.0 mi Calm Calm - N/A   Clear
3:55 AM 77.0 °F - 77.0 °F 100% 29.69 in 7.0 mi Calm Calm - N/A   Clear
4:15 AM 75.2 °F - 75.2 °F 100% 29.69 in 6.0 mi South 3.5 mph - N/A   Clear
4:35 AM 77.0 °F - 77.0 °F 100% 29.68 in 8.0 mi SE 5.8 mph - N/A   Clear
4:55 AM 77.0 °F - 77.0 °F 100% 29.68 in 9.0 mi SSE 4.6 mph - N/A   Clear
5:15 AM 77.0 °F - 77.0 °F 100% 29.68 in 8.0 mi SSE 6.9 mph - N/A   Clear
5:35 AM 77.0 °F - 77.0 °F 100% 29.68 in 9.0 mi SSE 4.6 mph - N/A   Clear
5:55 AM 77.0 °F - 77.0 °F 100% 29.68 in 9.0 mi South 5.8 mph - N/A   Clear
6:15 AM 77.0 °F - 77.0 °F 100% 29.69 in 8.0 mi SSE 6.9 mph - N/A   Clear
6:35 AM 77.0 °F - 77.0 °F 100% 29.69 in 9.0 mi SSE 3.5 mph - N/A   Clear
6:55 AM 78.8 °F - 77.0 °F 94% 29.69 in 9.0 mi Variable 5.8 mph - N/A   Unknown
7:15 AM 78.8 °F - 77.0 °F 94% 29.69 in 10.0 mi South 9.2 mph - N/A   Unknown
7:35 AM 80.6 °F 87.1 °F 77.0 °F 89% 29.70 in 10.0 mi South 9.2 mph - N/A   Clear
7:55 AM 80.6 °F 87.1 °F 77.0 °F 89% 29.70 in 10.0 mi SSE 10.4 mph - N/A   Clear
8:15 AM 82.4 °F 90.9 °F 77.0 °F 84% 29.70 in 10.0 mi SSE 10.4 mph - N/A   Clear
8:35 AM 82.4 °F 90.9 °F 77.0 °F 84% 29.70 in 10.0 mi SSE 11.5 mph - N/A   Clear
8:55 AM 82.4 °F 89.5 °F 75.2 °F 79% 29.71 in 10.0 mi SSE 11.5 mph - N/A   Clear
9:15 AM 84.2 °F 92.3 °F 75.2 °F 74% 29.70 in 10.0 mi South 15.0 mph - N/A   Clear
9:35 AM 86.0 °F 95.1 °F 75.2 °F 70% 29.70 in 10.0 mi South 15.0 mph - N/A   Clear
9:55 AM 86.0 °F 95.1 °F 75.2 °F 70% 29.69 in 10.0 mi South 16.1 mph - N/A   Clear
10:15 AM 86.0 °F 95.1 °F 75.2 °F 70% 29.68 in 10.0 mi South 18.4 mph - N/A   Clear
10:35 AM 87.8 °F 97.6 °F 75.2 °F 66% 29.68 in 10.0 mi South 17.3 mph - N/A   Clear
10:55 AM 87.8 °F 97.6 °F 75.2 °F 66% 29.67 in 10.0 mi South 21.9 mph 27.6 mph N/A   Clear
11:15 AM 87.8 °F 99.7 °F 77.0 °F 70% 29.67 in 10.0 mi South 18.4 mph 27.6 mph N/A   Clear
11:35 AM 89.6 °F 102.2 °F 77.0 °F 66% 29.68 in 10.0 mi South 17.3 mph 27.6 mph N/A   Clear
11:55 AM 89.6 °F 102.2 °F 77.0 °F 66% 29.69 in 10.0 mi South 17.3 mph 24.2 mph N/A   Clear
12:15 PM 91.4 °F 105.1 °F 77.0 °F 63% 29.68 in 10.0 mi South 20.7 mph 26.5 mph N/A   Clear
12:35 PM 91.4 °F 105.1 °F 77.0 °F 63% 29.67 in 10.0 mi South 20.7 mph 28.8 mph N/A   Clear
12:55 PM 91.4 °F 105.1 °F 77.0 °F 63% 29.67 in 10.0 mi South 19.6 mph 26.5 mph N/A   Clear
1:15 PM 93.2 °F 107.2 °F 77.0 °F 59% 29.67 in 10.0 mi South 23.0 mph - N/A   Clear
1:35 PM 93.2 °F 107.2 °F 77.0 °F 59% 29.66 in 10.0 mi South 20.7 mph 28.8 mph N/A   Clear
1:55 PM 93.2 °F 107.2 °F 77.0 °F 59% 29.67 in 10.0 mi South 20.7 mph 27.6 mph N/A   Clear
2:15 PM 93.2 °F 107.2 °F 77.0 °F 59% 29.67 in 10.0 mi South 18.4 mph 29.9 mph N/A   Clear
2:35 PM 95.0 °F 112.2 °F 78.8 °F 59% 29.68 in 10.0 mi SSW 17.3 mph 23.0 mph N/A   Clear
2:55 PM 95.0 °F 109.7 °F 77.0 °F 56% 29.68 in 10.0 mi South 17.3 mph 24.2 mph N/A   Clear
3:15 PM 95.0 °F 112.2 °F 78.8 °F 59% 29.68 in 10.0 mi SSW 15.0 mph 23.0 mph N/A   Clear
3:55 PM 95.0 °F 112.2 °F 78.8 °F 59% 29.68 in 10.0 mi South 15.0 mph 21.9 mph N/A   Clear
4:15 PM 95.0 °F 112.2 °F 78.8 °F 59% 29.68 in 10.0 mi South 16.1 mph - N/A   Clear
4:35 PM 95.0 °F 115.8 °F 80.6 °F 63% 29.68 in 10.0 mi South 16.1 mph - N/A   Clear
4:55 PM 95.0 °F 115.8 °F 80.6 °F 63% 29.68 in 10.0 mi South 13.8 mph - N/A   Clear
5:15 PM 95.0 °F 112.2 °F 78.8 °F 59% 29.68 in 10.0 mi SSW 12.7 mph 18.4 mph N/A   Clear
5:35 PM 95.0 °F 115.8 °F 80.6 °F 63% 29.68 in 10.0 mi SSW 12.7 mph - N/A   Clear
5:55 PM 95.0 °F 112.2 °F 78.8 °F 59% 29.67 in 10.0 mi South 13.8 mph - N/A   Clear
6:15 PM 95.0 °F 115.8 °F 80.6 °F 63% 29.67 in 10.0 mi SSW 11.5 mph - N/A   Clear
6:35 PM 95.0 °F 119.6 °F 82.4 °F 67% 29.67 in 10.0 mi South 10.4 mph - N/A   Clear
6:55 PM 93.2 °F 117.1 °F 82.4 °F 71% 29.67 in 10.0 mi South 9.2 mph - N/A   Clear
7:15 PM 93.2 °F 117.1 °F 82.4 °F 71% 29.67 in 10.0 mi South 8.1 mph - N/A   Clear
7:35 PM 93.2 °F 117.1 °F 82.4 °F 71% 29.67 in 10.0 mi South 8.1 mph - N/A   Clear
7:55 PM 91.4 °F 117.8 °F 84.2 °F 79% 29.67 in 10.0 mi SSW 6.9 mph - N/A   Clear
8:15 PM 89.6 °F 111.1 °F 82.4 °F 79% 29.68 in 10.0 mi SSW 5.8 mph - N/A   Clear
8:35 PM 89.6 °F 111.1 °F 82.4 °F 79% 29.68 in 10.0 mi SSW 5.8 mph - N/A   Clear
8:55 PM 87.8 °F 108.2 °F 82.4 °F 84% 29.68 in 10.0 mi SSW 4.6 mph - N/A   Clear
9:15 PM 87.8 °F 104.9 °F 80.6 °F 79% 29.68 in 10.0 mi SSW 5.8 mph - N/A   Clear
9:35 PM 86.0 °F 101.9 °F 80.6 °F 84% 29.70 in 10.0 mi Calm Calm - N/A   Clear
9:55 PM 86.0 °F 104.7 °F 82.4 °F 89% 29.70 in 10.0 mi Calm Calm - N/A   Clear
10:15 PM 84.2 °F 100.6 °F 82.4 °F 94% 29.71 in 10.0 mi Calm Calm - N/A   Clear
10:35 PM 82.4 °F 94.0 °F 80.6 °F 94% 29.72 in 10.0 mi Calm Calm - N/A   Clear
10:55 PM 82.4 °F 96.1 °F 82.4 °F 100% 29.72 in 10.0 mi Calm Calm - N/A   Clear
11:15 PM 82.4 °F 96.1 °F 82.4 °F 100% 29.72 in 10.0 mi Calm Calm - N/A   Clear
11:35 PM 82.4 °F 96.1 °F 82.4 °F 100% 29.72 in 10.0 mi Calm Calm - N/A   Clear
11:55 PM 82.4 °F 94.0 °F 80.6 °F 94% 29.72 in 10.0 mi SSE 3.5 mph - N/A   Clear